Weather History for MMTJ - October, 2013

Change the Weather History Date:

Monday, October 14, 2013

  Actual Average Record
Temperature  
Mean Temperature 62 °F -  
Max Temperature 77 °F 74 °F 89 °F (1959)
Min Temperature 48 °F 56 °F 45 °F (2013)
Degree Days  
Heating Degree Days 2    
Growing Degree Days 12 (Base 50)    
Moisture  
Dew Point 49 °F    
Average Humidity 68    
Maximum Humidity 88    
Minimum Humidity 27    
Precipitation  
Precipitation 0.00 in - - ()
Sea Level Pressure  
Sea Level Pressure 29.99 in    
Wind  
Wind Speed 3 mph ()    
Max Wind Speed 12 mph    
Max Gust Speed -    
Visibility 7.3 miles    
Events      
Averages and records for this station are not official NWS values.
T = Trace of Precipitation, MM = Missing Value Source: Averaged Metar Reports

Daily Weather History Graph

Daily Weather History Graph

Search for Another Location

Airport or City:

Trip Planner

Search our weather history database for the weather conditions in past years. The results will help you decide how hot, cold, wet, or windy it might be!

Date:

Astronomy

Oct. 14, 2013 Rise Set
Actual Time 6:51 AM PDT 6:15 PM PDT
Civil Twilight 6:26 AM PDT 6:40 PM PDT
Nautical Twilight 5:57 AM PDT 7:09 PM PDT
Astronomical Twilight 5:29 AM PDT 7:37 PM PDT
Moon 3:35 PM PDT (10/14) 2:27 AM PDT (10/14)
Length of Visible Light 12h 14m
Length of Day
11h 24m
Waxing Gibbous, 80% of the Moon is Illuminated
Oct 14
Waxing Gibbous
Oct 18
Full
Oct 26
Last Quarter
Nov 3
New
Nov 9
First Quarter

Hourly Weather History & Observations

Time (PDT) Temp. Dew Point Humidity Pressure Visibility Wind Dir Wind Speed Gust Speed Precip Events Conditions
12:44 AM 51.8 °F 46.4 °F 82% 30.03 in 8.0 mi Calm Calm - N/A   Clear
1:52 AM 51.8 °F 46.4 °F 82% 30.06 in 8.0 mi Calm Calm - N/A   Clear
3:41 AM 50.0 °F 44.6 °F 82% 30.02 in 8.0 mi Calm Calm - N/A   Clear
4:47 AM 50.0 °F 44.6 °F 82% 30.04 in 8.0 mi Calm Calm - N/A   Clear
5:43 AM 50.0 °F 44.6 °F 82% 30.02 in 8.0 mi Calm Calm - N/A   Clear
7:19 AM 48.2 °F 44.6 °F 87% 30.02 in 10.0 mi Calm Calm - N/A   Clear
7:47 AM 53.6 °F 44.6 °F 72% 30.04 in 8.0 mi Calm Calm - N/A   Clear
8:40 AM 59.0 °F 44.6 °F 59% 30.03 in 10.0 mi South 3.5 mph - N/A   Clear
9:41 AM 64.4 °F 37.4 °F 37% 30.03 in 8.0 mi North 3.5 mph - N/A   Clear
10:51 AM 71.6 °F 39.2 °F 31% 30.02 in 8.0 mi NW 6.9 mph - N/A   Clear
11:53 AM 75.2 °F 39.2 °F 27% 29.98 in 8.0 mi WNW 11.5 mph - N/A   Clear
12:41 PM 77.0 °F 46.4 °F 34% 29.96 in 8.0 mi West 10.4 mph - N/A   Clear
1:41 PM 73.4 °F 51.8 °F 47% 29.96 in 8.0 mi West 11.5 mph - N/A   Clear
2:44 PM 71.6 °F 55.4 °F 57% 29.93 in 7.0 mi West 10.4 mph - N/A   Clear
3:40 PM 71.6 °F 55.4 °F 57% 29.93 in 7.0 mi West 10.4 mph - N/A   Clear
4:40 PM 69.8 °F 55.4 °F 60% 29.94 in 7.0 mi WNW 10.4 mph - N/A   Clear
5:41 PM 66.2 °F 57.2 °F 73% 29.93 in 7.0 mi WNW 8.1 mph - N/A   Clear
6:40 PM 62.6 °F 57.2 °F 82% 29.95 in 6.0 mi West 4.6 mph - N/A   Clear
7:40 PM 60.8 °F 57.2 °F 88% 29.97 in 5.0 mi WNW 3.5 mph - N/A   Clear
8:43 PM 59.0 °F 55.4 °F 88% 29.96 in 5.0 mi Calm Calm - N/A   Clear
9:42 PM 59.0 °F 55.4 °F 88% 29.97 in 5.0 mi Calm Calm - N/A   Clear
10:40 PM 59.0 °F 55.4 °F 88% 29.99 in 5.0 mi Calm Calm - N/A   Clear
11:50 PM 57.2 °F 53.6 °F 88% 29.96 in 5.0 mi Calm Calm - N/A   Clear